THOR ABLESTAR DEB, 715

Orbit data source: Space-Track

THOR ABLESTAR DEB, 715 is space debris in LEO originally from a launch on Thu, 05 Dec 1963 UTC launched from the Air Force Western Test Range (AFWTR). Debris objects in space refer to the collection of defunct objects orbiting the Earth. Examples of debris include non-operational satellites, rocket bodies, and fragments generated from explosions, collisions, or faulty payload assembly.

Loading next visibility...
Identifier
715, 1963-049E
Orbit
LEO
Last TLE update
15 hours ago
Origin
Manufacturer
Unknown
Mission
Spacecraft
Bus & Motor
Unknown
Mass
Unknown
Launch date (UTC)
1963-12-05 (62 years ago)
Launch vehicle
Unknown
Launch site
Air Force Western Test Range (AFWTR)
Object type
Payload
Rocket body
Debris
Shape & HBR
Unknown
Radar Cross Section
Small (<0.1 m²)

Expand to show TLE details & history

TLE from 15 hours ago
0 THOR ABLESTAR DEB
1 00715U 63049E   25167.22379991  .00000668  00000-0  68780-3 0  9990
2 00715  89.9109  81.0823 0028386 179.5039 333.4308 13.74964935 53085
Epoch: 2025-06-16T05:22Z
TLE epoch observation values (Epoch: 2025-06-16T05:22:16.312Z)
Latitude
27.24793°
Longitude
-84.26893°
Altitude
966.539 km
Speed
7.38 km/s
True Right ascension
17h 24m 08s
True Declination
27° 06' 44"
Sunlit
Object was in full shadow at epoch
Visualization orbit readout
Latitude
-78.429°
Longitude
95.33808°
Altitude
1,014.767 km
Speed
7.341 km/s
Apparent Right ascension
19h 10m 33s
Apparent Declination
-72° 39' 14"
Sunlit
Object is in daylight
Visualization observer readout
Local Sidereal Time
06:38:52
Azimuth
184.33° SSW
Elevation
-57.032°
Doppler factor
1
Orbital elements
Apogee altitude
999.697 km
Perigee altitude
957.93 km
Semi-major axis
7,356.95 km
Eccentricity
0.00284
Inclination
89.9109°
RAAN
81.0823°
Arg. of periapsis
179.5039°
True anomaly
Unknown
Mean anomaly
333.4308°
Eccentric anomaly
Unknown
Mean motion
3.43951 °/min
Orbital period
104.67 mins
BSTAR
0.0006878
Loading maneuver chart data...
Loading SW <> Apogee altitude chart data...
Loading historical data...
Loading historical data...
Loading historical data...
Loading historical data...
Loading historical data...
Loading historical data...
Loading historical data...

THOR ABLESTAR DEB Visibility forecast

Observer location: undefined°, undefined°

Span
Click to sort rows by Start time (UTC) header in descending order
Start Az.
Max El. time (UTC)
Max El. Az.
Max El.
End time (UTC)
End Az.
8 mins2025-06-17 05:42:00.113Z33.592° NE2025-06-17 05:46:00.113Z91.117° ESE27.496°2025-06-17 05:50:00.113Z140.068° SSE
9 mins2025-06-17 07:26:00.113Z338.003° N2025-06-17 07:30:00.113Z284.342° WNW30.399°2025-06-17 07:35:00.113Z219.935° SW
8 mins2025-06-17 17:27:00.113Z119.75° SE2025-06-17 17:31:00.113Z71.084° E23.081°2025-06-17 17:35:00.113Z27.075° NE
10 mins2025-06-17 19:10:00.113Z203.142° SW2025-06-17 19:15:00.113Z275.716° WNW36.45°2025-06-17 19:20:00.113Z342.995° N
|